CZ-3C DEB, 39354

Orbit data source: Space-Track

CZ-3C DEB, 39354 is space debris in HEO originally from a launch on Sun, 31 Oct 2010 UTC launched from the Xichang Space Center, China (XSC). Debris objects in space refer to the collection of defunct objects orbiting the Earth. Examples of debris include non-operational satellites, rocket bodies, and fragments generated from explosions, collisions, or faulty payload assembly.

Not visible in the next 10 days
Identifier
39354, 2010-057U
Orbit
HEO
Country
Flag of CNCN / PRC
Related business
Manufacturer
CALT
Mission
Spacecraft
Bus & Motor
Unknown
Mass
Unknown
Launch date (UTC)
2010-10-31 (15 years ago)
Launch vehicle
Unknown
Launch site
Xichang Space Center, China (XSC)
Object type
Payload
Rocket body
Debris
Shape & HBR
Unknown shape, 0.2 m
Radar Cross Section
Medium (>0.1 m² and <1 m²)

Expand to show TLE details & history
Last TLE update: 1 day ago

TLE from 1 day ago
0 CZ-3C DEB
1 39354U 10057U   25348.84379613  .00000182  00000-0  27285-2 0  9997
2 39354  20.1506 157.2869 7170534  49.6134 357.6726  2.22642969 94698
Epoch: 2025-12-14T20:15Z
TLE epoch observation values (Epoch: 2025-12-14T20:15:03.985Z)
Latitude
9.55371°
Longitude
156.85744°
Altitude
834.016 km
Speed
9.718 km/s
True Right ascension
12h 17m 29s
True Declination
9° 29' 53"
Sunlit
Object was in daylight at epoch
Visualization orbit readout
Latitude
Unknown
Longitude
Unknown
Altitude
Unknown
Speed
Unknown
Apparent Right ascension
Unknown
Apparent Declination
Unknown
Sunlit
N/A
Visualization observer readout
Local Sidereal Time
19:05:00
Azimuth
Unknown
Elevation
Unknown
Doppler factor
Unknown
Orbital elements
Apogee altitude
36,167.553 km
Perigee altitude
632.803 km
Semi-major axis
24,778.315 km
Eccentricity
0.71705
Inclination
20.1506°
RAAN
157.2869°
Arg. of periapsis
49.6134°
True anomaly
340.07784°
Mean anomaly
357.6726°
Eccentric anomaly
351.84415°
Mean motion
0.55646 °/min
Orbital period
646.94 mins
BSTAR
0.0027285
Loading maneuver chart data...
Computing Atmospheric mass density...
Loading historical data...
Loading historical data...
Loading historical data...
Loading historical data...
Loading historical data...
Loading historical data...
Loading historical data...

Documentation

Showing up to 5 results
|